Regional Weather Roundup
Issued by NWS Upton, NY

Current Version | Previous Version | Graphics & Text | Print | Product List | Glossary Off
Versions: 1 2 3 4 5 6 7 8 9 10 11 12 13 14 15 16 17 18 19 20 21 22 23 24 25 26 27 28 29 30 31 32 33 34 35 36 37 38 39 40 41 42 43 44 45 46 47 48 49 50

000
ASUS41 KOKX 200105
RWROKX
REGIONAL WEATHER ROUNDUP
NATIONAL WEATHER SERVICE NEW YORK NY
900 PM EDT FRI SEP 19 2014

NOTE: "FAIR" INDICATES FEW OR NO CLOUDS BELOW 12,000 FEET WITH NO
SIGNIFICANT WEATHER AND/OR OBSTRUCTIONS TO VISIBILITY.

NYZ071-072-176-178-NJZ106-104-200200-
NEW YORK CITY METRO AREA


CITY           SKY/WX    TMP DP  RH WIND       PRES   REMARKS
CENTRAL PARK   MOCLDY    60  46  59 VRB3      30.40R
LAGUARDIA APRT PTCLDY    61  46  57 SE12      30.38R
KENNEDY INTL   PTCLDY    58  47  66 E7        30.39R
NEWARK/LIBERTY MOCLDY    62  49  62 E10       30.37R
BRNX BOT. GARD   N/A     59  46  63 SE7       30.39R
TETERBORO      CLOUDY    61  46  57 SE8       30.36R
$$

NYZ177-179-078>081-200200-
LONG ISLAND NEW YORK

CITY           SKY/WX    TMP DP  RH WIND       PRES   REMARKS
FARMINGDALE    CLEAR     57  46  66 SE5       30.39R
ISLIP          CLEAR     53  43  68 E5        30.38R
SHIRLEY        CLEAR     50  41  71 CALM      30.40R
WESTHAMPTON    CLEAR     48  39  71 NE3       30.42R
MONTAUK POINT    N/A     55  43  63 E3        30.42R
$$

NYZ052-065-067-200200-
HUDSON VALLEY

CITY           SKY/WX    TMP DP  RH WIND       PRES   REMARKS
WHITE PLAINS   CLEAR     53  45  74 SE3       30.38R
NEWBURGH       PTCLDY    55  46  71 S6        30.38R
MONTGOMERY     MOCLDY    51  45  79 SW3       30.36R
POUGHKEEPSIE   CLEAR     54  45  71 SE5       30.36R
ALBANY         CLEAR     54  39  57 SE3       30.33S
$$

NJZ001-105-106-008-010-013-015-019>022-104-200200-
NEW JERSEY

CITY           SKY/WX    TMP DP  RH WIND       PRES   REMARKS
NEWARK/LIBERTY MOCLDY    62  49  62 E10       30.37R
TETERBORO      CLOUDY    61  46  57 SE8       30.36R
CALDWELL       CLOUDY    59  47  64 SE6       30.37S
MORRISTOWN     NOT AVBL
SOMERVILLE     CLEAR     53  48  83 CALM      30.35R
LINDEN         CLOUDY    66  53  61 SE7       30.39R
SUSSEX         MOCLDY    59  49  69 SW3       30.36R
ANDOVER          N/A     56  49  77 CALM      30.36R
TRENTON        PTCLDY    57  50  77 E6        30.36S
MILLVILLE      CLEAR     60  55  83 NE8       30.33R
ATLANTIC CITY  CLEAR     61  57  87 E9        30.33R
WRIGHTSTOWN    CLEAR     54  52  94 NE6       30.34R
TOMS RIVER     PTCLDY    57  54  88 CALM      30.36R
BELMAR         CLOUDY    61  50  67 E8        30.37R
$$

PAZ047>061-062-071-200200-
EASTERN PENNSYLVANIA

CITY           SKY/WX    TMP DP  RH WIND       PRES   REMARKS
PHILADELPHIA   PTCLDY    61  54  77 E10       30.35R
ALLENTOWN      CLEAR     60  49  66 SE8       30.34R
SCRANTON       PTCLDY    59  47  64 SE12G18   30.29S
$$

CTZ002-004>006-009-010-012-RIZ004-006-007-MAZ004-011-015-200200-
SOUTHERN NEW ENGLAND
 IN CT

CITY           SKY/WX    TMP DP  RH WIND       PRES   REMARKS
BRADLEY INTL   CLEAR     52  39  61 SE6       30.39R
HARTFORD       CLEAR     53  43  68 SE8       30.40R
DANBURY        CLEAR     50  44  80 SE3       30.40R
WTRBRY/OXFORD  NOT AVBL
BRIDGEPORT     PTCLDY    59  46  62 SE10      30.39R
MERIDEN        CLEAR     48  42  80 CALM      30.40R
NEW HAVEN      CLEAR     59  44  57 SE8       30.40R
CHESTER        FAIR      48  45  87 CALM      30.41R
GROTON         CLEAR     51  42  71 E8        30.41R
WILLIMANTIC    CLEAR     48  39  71 CALM      30.42R

 IN RI

CITY           SKY/WX    TMP DP  RH WIND       PRES   REMARKS
PROVIDENCE     CLEAR     51  38  60 E9        30.43S
BLOCK ISLAND   PTCLDY    54  39  58 E12G17    30.41S
WESTERLY       CLEAR     49  42  77 NE3       30.42R

 IN MA

CITY           SKY/WX    TMP DP  RH WIND       PRES   REMARKS
BOSTON         CLEAR     51  34  52 SE9       30.43S
WORCESTER      CLEAR     46  33  60 SE8       30.41R
WESTFIELD      CLEAR     44  41  89 CALM      30.39R
PROVINCETOWN   CLEAR     39  30  70 E3        30.44F
NANTUCKET      CLEAR     45  36  70 E6        30.43R
$$

ANZ330-335-338-340-345-350-353-355-200200-
COASTAL MARINE OBSERVATIONS


STATION/POSITION TIME  SKY/WX   TEMP    WIND        PRES    VSBY  WAVE
                                AIR SEA DIR/SP/G                  HT/PER
                 (UTC)          (F)     (DEG/KT/KT) (MB)    (MI)  (FT/S)
NY HARB ENTRANCE 0100            62 70  100/ 14/ 16 1029.0          3/ 6
4S FIRE IS       0100               69                N/A           3/ 4
20S FIRE ISLAND  0100            61 67   90/ 14/ 16 1029.2          4/ 7
23SW MTP         0100                                 N/A           4/ 6
HUDSON CANYON    0100            64 72   80/ 14/ 17 1027.7          5/ 7
EXECUTION ROCKS  0100            60 70  130/  8/ 10   N/A
WESTERN LI SOUND 0100            60     140/ 14/ 16   N/A           1
CENTRAL LI SOUND 0000            59 70  140/ 12/ 16   N/A           1/ 2
EASTERN LI SOUND 0000            59 68  100/ 12/ 14   N/A
ROBBINS REEF     0100            61     100/ 14/ 15 1027.2
$$


>>>>>>>>>>>>>>>>>>>>>>>>>>>> KEY <<<<<<<<<<<<<<<<<<<<<<<<<<<
>                                                          <
>     SKY/WX - SKY CONDITION/PRESENT WEATHER               <
>     TMP    - TEMPERATURE IN FAHRENHEIT                   <
>     DP     - DEWPOINT IN FAHRENHEIT                      <
>     RH     - RELATIVE HUMIDITY IN PERCENT                <
>     WIND   - DIRECTION AND SPEED IN MPH                  <
>     PRES   - MEAN SEA LEVEL PRESSURE IN INCHES OF HG     <
>     WCI    - WIND CHILL INDEX                            <
>     VSB    - VISIBILITY IN MILES                         <
>     HX     - HEAT INDEX                                  <
>     TC     - TEMPERATURE IN CELSIUS                      <
>     VRB    - VARIABLE WIND DIRECTION                     <
>                                                          <
>>>>>>>>>>>>>>>>>>>>>>>>>>>> KEY <<<<<<<<<<<<<<<<<<<<<<<<<<<




USA.gov is the U.S. government's official web portal to all federal, state and local government web resources and services.